This is the latest recevied weather packets stored in our database for station/object WD4IXD. If no packets are shown the sender has not sent any weather packets the latest 1 day(s).
| Time | Temp. | Humidity | Pressure | Rain* | Wind** | Luminosity | Snow |
|---|---|---|---|---|---|---|---|
| 1778093704 | 2.22° C | 94% | 1020.5 hPa | 2.03 mm | - | 675 W/m² | - |
| 1778092804 | 2.22° C | 94% | 1020.5 hPa | 1.52 mm | - | 241 W/m² | - |
| 1778090717 | 1.11° C | 94% | 1020.5 hPa | 1.27 mm | - | 76 W/m² | - |
| 1778089215 | 1.67° C | 95% | 1020.4 hPa | 1.52 mm | - | 83 W/m² | - |
| 1778087415 | 1.67° C | 95% | 1020.2 hPa | 1.27 mm | - | 56 W/m² | - |
| 1778085904 | 1.11° C | 95% | 1019.9 hPa | 1.27 mm | - | 54 W/m² | - |
| 1778085015 | 1.11° C | 95% | 1019.7 hPa | 1.02 mm | - | 62 W/m² | - |
| 1778084104 | 1.11° C | 95% | 1019.8 hPa | 1.02 mm | - | 62 W/m² | - |
| 1778083815 | 1.11° C | 95% | 1019.7 hPa | 1.02 mm | - | 67 W/m² | - |
| 1778082015 | 1.11° C | 95% | 1019.7 hPa | 0.51 mm | - | 37 W/m² | - |
| 1778081104 | 1.11° C | 95% | 1019.6 hPa | 0.51 mm | - | 32 W/m² | - |
| 1778080815 | 1.11° C | 95% | 1019.5 hPa | 0.51 mm | - | 35 W/m² | - |
| 1778079304 | 0.56° C | 95% | 1019.2 hPa | 0 mm | - | 26 W/m² | - |
| 1778078415 | 0.56° C | 95% | 1019.2 hPa | 0 mm | - | 23 W/m² | - |
| 1778078115 | 0.56° C | 95% | 1019.2 hPa | 0 mm | - | 23 W/m² | - |
| 1778077515 | 0.56° C | 95% | 1019 hPa | 0 mm | - | 23 W/m² | - |
| 1778075404 | 0.56° C | 95% | 1018.9 hPa | 0 mm | - | 19 W/m² | - |
| 1778074515 | 0.56° C | 95% | 1018.7 hPa | 0 mm | - | 11 W/m² | - |
| 1778073604 | 0.56° C | 95% | 1018.5 hPa | 0 mm | - | 7 W/m² | - |
| 1778073315 | 0.56° C | 95% | 1018.6 hPa | 0 mm | - | 7 W/m² | - |
| 1778072715 | 0° C | 95% | 1018.3 hPa | 0 mm | - | 7 W/m² | - |
| 1778071804 | 0° C | 95% | 1018 hPa | 0 mm | - | 7 W/m² | - |
| 1778071515 | 0° C | 95% | 1018.1 hPa | 0 mm | - | 5 W/m² | - |
| 1778070604 | 0° C | 95% | 1018 hPa | 0 mm | - | 0 W/m² | - |
| 1778068804 | 0° C | 95% | 1017.8 hPa | 0 mm | - | 0 W/m² | - |
* Rain latest hour (hover to see other rain measurements)
** Current wind speed in m/s (hover to see current wind gust speed)